Weather History for Tin City, AK

Change the Weather History Date:

Monday, June 10, 2013

  Actual Average Record
Temperature  
Mean Temperature 32 °F -  
Max Temperature 34 °F 42 °F 53 °F (2003)
Min Temperature 31 °F 32 °F 28 °F (1998)
Degree Days  
Heating Degree Days 33    
Moisture  
Dew Point 34 °F    
Average Humidity 100    
Maximum Humidity 100    
Minimum Humidity 100    
Precipitation  
Precipitation 0.00 in - - ()
Sea Level Pressure  
Sea Level Pressure 30.32 in    
Wind  
Wind Speed 18 mph (SSW)    
Max Wind Speed 74 mph    
Max Gust Speed 145 mph    
Averages and records for this station are not official NWS values.
T = Trace of Precipitation, MM = Missing Value Source: NWS Daily Summary

Daily Weather History Graph

Daily Weather History Graph

Search for Another Location

Airport:

Trip Planner

Search our weather history database for the weather conditions in past years. The results will help you decide how hot, cold, wet, or windy it might be!

Date:

Astronomy

Jun. 10, 2013 Rise Set
Actual Time 4:03 AM AKDT 2:22 AM AKDT
Civil Twilight Sun does not rise Sun does not rise
Nautical Twilight Sun does not rise Sun does not rise
Astronomical Twilight Sun does not rise Sun does not rise
Moon 7:32 AM AKDT (6/10) 1:48 AM AKDT (6/10)
Length of Visible Light 24h 00m
Length of Day
22h 19m
Waxing Crescent, 4% of the Moon is Illuminated
Jun 10
Waxing Crescent
Jun 16
First Quarter
Jun 23
Full
Jun 29
Last Quarter
Jul 7
New

Hourly Weather History & Observations

Time (AKDT) Temp. Windchill Dew Point Humidity Pressure Visibility Wind Dir Wind Speed Gust Speed Precip Events Conditions
12:55 AM - - - N/A% 30.26 in 0.2 mi SSW 16.1 mph - N/A Fog , Rain Light Rain
1:55 AM 33.1 °F 23.9 °F 33.8 °F 100% 30.27 in 0.2 mi SSW 12.7 mph - N/A Fog , Rain Light Rain
2:55 AM 33.1 °F 23.4 °F 34.0 °F 100% 30.28 in 0.2 mi South 13.8 mph - N/A Fog , Rain Light Rain
3:55 AM 33.1 °F 23.0 °F 34.0 °F 100% 30.29 in 0.2 mi South 15.0 mph - N/A Fog , Rain Light Rain
4:55 AM 32.9 °F 23.2 °F 33.8 °F 100% 30.28 in 0.2 mi WSW 13.8 mph - N/A Fog , Rain Light Rain
5:55 AM 33.3 °F 21.5 °F 34.2 °F 100% 30.29 in 0.2 mi SSW 20.7 mph - N/A Fog , Rain Light Rain
6:25 AM 33.8 °F 22.5 °F 33.8 °F 100% 30.30 in 0.2 mi SSW 19.6 mph - N/A Fog , Rain Light Rain
6:45 AM 33.8 °F 23.2 °F 33.8 °F 100% 30.30 in 0.2 mi SSW 17.3 mph 25.3 mph N/A Fog , Rain Light Rain
6:55 AM 33.1 °F 21.9 °F 34.0 °F 100% 30.30 in 0.2 mi SSW 18.4 mph - N/A Fog , Rain Light Rain
7:55 AM 33.1 °F 22.2 °F 33.8 °F 100% 30.31 in 0.2 mi SSW 17.3 mph - N/A Fog , Rain Light Rain
8:55 AM 33.1 °F 21.5 °F 33.8 °F 100% 30.31 in 0.2 mi SSW 19.6 mph - N/A Fog , Rain Light Rain
9:00 AM 33.1 °F 21.9 °F 33.8 °F 100% 30.32 in 0.2 mi SW 18.4 mph - N/A Fog , Rain Light Rain
9:55 AM 33.8 °F 23.2 °F 33.8 °F 100% 30.33 in 0.2 mi SW 17.3 mph - N/A Fog , Rain Light Rain
10:55 AM - - - N/A% 30.34 in 0.2 mi SW 17.3 mph - N/A Fog , Rain Light Rain Showers
11:55 AM - - - N/A% 30.35 in 0.2 mi SW 19.6 mph - N/A Fog , Rain Light Rain Showers
12:55 PM - - - N/A% 30.36 in 0.2 mi SSW 16.1 mph - N/A Fog Fog
1:55 PM - - - N/A% 30.36 in 0.2 mi South 17.3 mph - N/A Fog Fog
2:55 PM - - - N/A% 30.36 in 0.2 mi SSW 16.1 mph - N/A Fog Fog
3:55 PM - - - N/A% 30.35 in 0.2 mi SSW 18.4 mph - N/A Fog , Rain Light Rain
4:55 PM - - - N/A% 30.35 in 0.2 mi South 18.4 mph - N/A Fog , Rain Light Rain
5:45 PM - - - N/A% 30.35 in 0.2 mi South 17.3 mph - N/A Fog , Rain Light Rain
5:55 PM - - - N/A% 30.35 in 0.2 mi South 16.1 mph - N/A Fog , Rain Light Rain
6:05 PM - - - N/A% 30.35 in 0.2 mi South 16.1 mph - N/A Fog , Rain Light Rain
6:55 PM - - - N/A% 30.35 in 0.2 mi SSW 19.6 mph - N/A Fog , Rain Light Rain
7:55 PM 31.8 °F 19.9 °F 32.7 °F 100% 30.34 in 0.2 mi SSW 19.6 mph - N/A Fog , Rain Light Freezing Rain
8:55 PM 31.6 °F 20.4 °F 32.5 °F 100% 30.34 in 0.2 mi SSW 17.3 mph - N/A Fog , Rain Light Freezing Rain
9:55 PM 31.3 °F 18.9 °F 32.2 °F 100% 30.34 in 0.2 mi SSW 20.7 mph - N/A Fog , Rain Light Freezing Rain
10:55 PM - - - N/A% 30.34 in 0.2 mi ESE 73.6 mph 145.0 mph N/A Fog , Rain Light Rain
11:55 PM - - - N/A% 30.34 in 0.2 mi North - - N/A Fog , Rain Light Rain